Temperature
15 15 15 14 14 14 14 14 13 13 13 13 13 13 13 13 13 13 13 13 13 13 13 13 13 13 13 13 13 13 13 13 13 13 12 12 12 12 12 12 12 12 12
15 15 14 14 14 14 14 14 13 13 13 13 13 13 13 13 13 13 13 13 12 13 12 12 12 12 12 12 12 12 13 13 13 13 12 12 12 12 12 12 12 12 12
14 14 14 14 14 14 14 13 13 13 13 13 13 13 13 13 13 13 12 12 12 12 12 12 12 12 12 12 12 12 12 12 12 12 12 12 12 12 12 12 12 12 12
14 14 14 13 14 13 13 13 13 13 13 13 13 13 13 12 12 12 12 12 12 12 12 12 12 12 12 12 12 12 12 12 12 12 12 12 12 12 11 11 11 11 11
13 13 13 13 13 13 13 13 13 13 13 12 12 12 12 12 12 12 12 12 12 12 12 12 12 12 12 12 12 12 12 11 11 11 11 11 11 11 11 11 11 11 11
13 13 13 13 13 13 12 12 12 12 12 12 12 12 12 12 12 12 12 12 12 12 12 12 11 11 11 11 11 11 11 11 11 11 11 11 11 11 11 11 11 11 11
13 13 12 12 12 12 12 12 12 12 12 12 12 12 12 12 12 12 11 11 11 11 12 11 11 11 11 11 11 11 11 11 11 11 11 11 11 11 11 10 10 11 11
12 12 12 12 12 12 12 11 11 11 11 11 11 11 11 11 11 11 11 11 11 11 11 11 11 11 11 11 11 11 11 11 11 10 10 10 10 10 10 10 10 10 10
12 12 11 11 11 11 11 11 11 11 11 11 11 11 11 11 11 11 11 11 11 11 11 11 11 10 10 10 10 10 10 10 10 10 10 10 10 10 10 10 10 9 9
11 11 11 11 11 11 11 11 10 10 10 10 10 10 10 10 10 10 10 10 10 10 10 10 10 10 10 10 10 10 10 10 10 10 10 10 9 9 9 9 9 9 9
11 11 11 10 10 10 10 10 10 10 9 9 9 9 9 9 10 10 9 10 10 10 10 9 9 9 9 9 9 9 9 9 9 9 9 9 9 9 9 9 9 9 9
11 10 10 10 10 10 10 10 9 9 9 9 9 9 9 9 9 9 9 9 9 9 9 9 9 9 9 9 8 8 8 8 8 8 8 8 8 8 8 8 8 8 8
10 10 10 10 10 9 9 9 9 9 9 9 9 9 9 9 8 8 9 9 9 8 8 8 8 8 8 8 8 8 8 8 8 8 8 8 8 8 8 8 8 8 8
10 10 9 9 9 9 9 9 9 8 8 8 8 8 8 8 8 8 8 8 8 8 8 8 8 8 8 7 7 7 7 7 7 7 7 7 7 7 7 7 7 7 7
9 9 9 9 9 9 9 8 8 8 8 8 8 8 8 8 8 8 7 7 7 7 7 7 7 7 7 7 7 7 7 7 7 6 6 6 6 6 6 6 6 6 6
9 9 8 8 8 8 8 8 8 8 8 8 7 7 7 7 7 7 7 7 7 7 7 7 7 6 6 6 6 6 6 6 6 6 6 6 6 6 6 6 6 5 5
8 8 8 8 8 7 8 7 7 7 7 7 7 7 7 7 7 7 7 7 6 6 6 6 6 6 6 6 6 6 6 6 5 5 5 5 5 5 5 5 5 5 5
8 8 7 7 7 7 7 7 7 7 7 7 7 7 7 7 7 6 6 6 6 6 6 6 6 6 6 6 6 5 5 5 5 5 5 5 5 5 5 5 5 4 4
7 7 7 7 7 7 7 7 7 6 6 7 7 7 6 6 6 6 6 6 6 6 5 5 5 5 5 5 5 5 5 5 5 5 5 5 5 4 4 4 4 4 4
7 7 7 7 6 6 6 6 6 6 6 6 6 6 6 6 6 6 5 5 5 5 5 5 5 5 5 5 5 5 4 4 4 4 4 4 4 4 4 4 4 4 4
7 6 6 6 6 6 6 6 6 6 6 6 6 6 5 5 5 5 5 5 5 5 4 4 4 4 4 4 4 4 4 4 4 4 4 4 4 4 3 3 3 3 3
6 6 6 6 5 5 5 5 5 5 5 5 5 5 5 5 5 5 5 4 4 4 4 4 4 4 4 4 4 4 4 4 4 3 3 3 3 3 3 3 3 3 3
6 5 5 5 5 5 5 5 5 5 5 5 5 5 5 5 5 4 4 4 4 4 4 4 4 3 3 4 3 3 3 3 3 3 3 3 3 3 3 3 3 2 2
5 5 5 5 5 4 4 4 4 4 4 4 4 4 4 4 4 4 4 4 4 4 3 3 3 3 3 3 3 3 3 3 3 3 3 3 3 2 2 2 2 2 2
5 5 4 4 4 4 4 4 4 4 4 4 4 4 4 4 4 4 4 3 3 3 3 3 3 3 3 3 3 3 3 3 2 2 2 2 2 2 2 2 2 2 2
4 4 4 4 4 4 3 3 3 3 3 3 3 3 3 3 3 3 3 3 3 3 3 3 3 2 2 2 2 2 2 2 2 2 2 2 2 2 2 2 1 1 1
Wind_Speed
4 4 4 4 4 4 4 4 3 3 3 3 3 2 2 2 1 1 1 1 1 1 0 1 1 0 1 1 1 2 2 2 3 1 1 1 2 2 2 3 3 3 2
4 4 4 4 3 4 4 4 4 4 3 3 3 3 2 2 2 2 2 2 2 2 1 1 1 1 1 1 1 1 1 2 3 3 1 0 1 2 2 2 2 2 2
3 3 3 3 3 3 4 4 4 4 3 2 2 3 2 2 2 2 3 3 3 3 2 2 2 1 1 1 1 1 1 1 2 3 2 1 0 0 1 0 0 0 1
2 3 3 3 3 3 3 2 3 3 3 3 2 2 2 2 2 2 2 3 3 2 2 2 2 2 2 2 2 2 2 2 1 2 2 1 1 0 1 1 1 2 2
3 3 3 3 2 2 2 2 2 2 2 2 2 1 1 1 2 2 2 2 2 2 1 2 2 2 2 2 1 2 3 2 2 2 2 1 1 1 2 1 1 1 2
3 2 2 2 2 2 2 1 2 2 2 2 1 1 1 1 1 3 3 2 2 2 2 1 1 1 1 1 2 3 4 4 3 3 2 3 3 2 2 2 1 1 2
3 3 2 3 3 2 2 2 1 2 2 2 1 1 1 2 1 2 3 3 2 3 3 2 1 1 1 1 1 1 1 3 4 4 4 4 4 4 4 3 3 3 3
3 3 3 3 3 2 2 2 1 1 1 1 2 1 1 2 1 2 2 2 2 3 3 3 3 1 1 2 2 1 0 0 2 2 4 4 3 4 5 5 4 2 1
4 3 3 4 3 3 3 2 1 1 1 1 1 1 1 2 2 1 2 2 1 2 2 2 3 3 2 3 3 2 1 1 1 0 1 2 2 3 4 3 2 2 1
4 4 3 3 4 3 3 3 1 1 2 2 1 1 2 2 2 1 1 2 1 1 1 1 2 2 3 4 4 3 2 2 1 1 1 2 1 2 4 4 4 3 2
4 3 3 3 4 4 3 2 2 2 1 2 1 1 2 2 2 0 1 2 2 2 1 1 2 2 3 4 4 3 4 2 1 1 0 1 1 1 1 2 3 3 3
3 3 3 3 3 2 3 2 2 2 2 2 1 1 2 2 1 1 1 1 2 3 3 3 2 1 2 2 3 2 2 2 1 1 0 1 1 2 2 2 3 3 3
3 3 3 2 2 2 3 3 2 2 3 3 2 2 2 2 2 2 1 1 1 2 2 2 1 1 1 1 1 1 2 2 2 1 1 2 2 2 1 1 1 1 1
2 2 2 2 2 2 2 2 3 3 4 4 3 3 3 2 2 2 1 2 2 2 1 1 1 1 1 1 0 1 1 2 2 2 2 2 1 0 1 0 1 0 0
2 2 1 2 2 2 2 3 3 4 5 5 4 4 4 4 4 3 2 2 3 3 2 2 1 1 1 0 0 0 1 1 1 1 1 1 1 1 1 1 0 0 1
2 1 1 2 2 2 2 1 1 2 3 4 4 4 4 4 3 2 2 2 3 4 3 1 1 2 2 2 2 1 1 2 2 1 1 1 1 2 2 1 1 1 2
3 2 1 2 2 2 2 2 2 2 2 2 3 3 3 3 3 2 2 2 3 4 3 2 3 3 3 3 3 3 2 3 2 2 2 2 2 2 2 1 1 1 2
2 2 2 2 2 2 3 3 3 3 2 3 3 2 2 3 3 3 2 3 1 2 2 3 4 3 3 3 3 3 3 2 2 2 2 2 2 2 2 2 2 3 3
2 2 2 2 2 2 2 2 3 3 3 3 2 2 2 2 1 1 3 3 3 3 3 3 4 3 3 3 3 3 3 3 3 3 3 3 3 3 3 3 3 4 3
2 3 2 1 1 1 2 2 2 3 3 3 3 3 1 1 1 1 2 3 3 4 4 4 4 4 4 4 4 3 3 3 4 4 4 4 4 3 4 4 4 3 4
1 2 2 1 2 2 2 2 2 2 3 3 4 3 3 3 4 4 4 4 4 5 4 4 4 4 4 4 4 4 4 4 4 4 4 4 4 4 4 4 4 4 4
2 1 1 2 2 2 3 2 2 2 3 3 3 3 3 3 3 3 4 4 5 5 4 4 4 4 4 5 4 4 5 5 5 4 4 4 4 4 4 4 4 4 4
2 2 2 2 2 3 2 2 2 2 2 3 3 3 3 3 4 4 4 4 4 4 4 4 4 4 4 4 5 5 6 6 6 5 5 5 5 5 5 5 5 5 5
2 2 2 2 2 2 2 2 2 2 2 3 3 3 3 4 4 4 4 4 4 4 4 4 5 6 6 5 5 6 7 7 7 6 7 6 6 5 5 5 6 6 6
2 2 2 2 2 2 2 2 2 3 3 3 3 3 3 4 4 4 4 4 4 4 4 5 5 5 7 8 7 7 9 10 9 7 6 6 6 6 6 6 6 6 6
2 3 3 2 3 2 2 3 3 3 3 3 3 3 3 3 4 4 3 3 4 4 5 4 6 6 7 7 9 10 10 10 10 10 7 5 6 6 6 6 7 6 6
Wind_Direction
196 200 192 196 193 181 176 186 187 191 193 188 192 191 195 200 193 148 185 168 170 203 213 172 225 150 122 117 128 147 151 149 164 229 239 215 165 169 165 176 185 169 179
191 185 191 192 189 186 186 188 182 186 198 197 186 195 210 212 197 183 196 189 182 188 220 188 241 182 134 120 132 143 162 159 152 174 214 180 176 183 180 184 183 190 196
177 174 180 183 184 194 203 199 186 185 188 187 173 192 213 213 204 207 201 199 193 200 199 190 225 162 174 204 167 162 161 141 133 153 185 185 103 101 119 100 61 327 239
163 165 178 195 196 198 199 194 180 173 171 184 186 200 216 213 208 209 197 202 193 199 203 196 195 184 194 204 186 181 153 126 128 143 153 150 139 332 116 133 345 335 317
155 162 185 193 183 173 167 168 162 160 167 178 161 167 213 206 204 181 186 191 184 189 199 206 207 206 226 210 198 183 155 147 149 154 165 147 168 165 194 198 211 304 322
153 172 176 162 155 154 159 151 150 152 157 144 158 167 191 254 197 174 177 181 182 178 186 220 239 225 233 212 182 166 166 166 179 177 190 198 216 210 192 188 182 211 280
159 165 164 162 158 168 163 129 160 179 163 154 190 195 223 251 197 159 167 166 178 193 192 191 226 274 202 190 193 147 177 181 175 176 188 210 209 208 188 196 206 207 234
168 176 178 164 168 172 163 174 210 199 179 195 220 228 264 293 245 167 146 154 178 200 198 188 187 217 204 159 150 132 107 235 201 181 195 214 218 201 195 199 200 203 271
174 183 189 175 166 169 179 204 212 176 191 216 228 224 244 292 295 201 146 167 175 206 203 189 186 193 197 152 144 152 129 327 342 182 204 207 205 192 170 143 149 156 261
195 191 186 179 176 186 198 202 193 176 197 190 222 238 235 268 301 194 150 155 165 235 229 225 210 186 182 159 160 165 182 240 291 0 353 335 306 189 180 182 184 186 202
189 175 173 184 196 203 201 199 187 182 191 199 212 244 245 259 292 250 149 160 179 203 220 234 238 204 177 167 163 180 204 195 189 185 259 309 333 310 233 212 196 191 197
169 173 192 205 214 207 192 204 195 181 193 215 217 263 286 281 275 278 239 186 165 185 214 224 232 211 188 181 187 211 193 141 130 134 149 291 293 283 270 249 223 213 212
165 184 201 211 218 205 194 200 198 198 209 219 218 235 263 276 275 282 272 258 230 210 220 217 200 191 193 193 201 175 133 128 137 158 227 249 261 275 307 339 319 272 297
172 202 198 195 221 219 202 201 201 210 213 218 223 230 240 251 262 259 260 252 236 224 205 182 142 118 112 76 55 172 159 171 177 205 229 249 268 292 297 270 246 247 314
170 199 224 219 218 221 222 218 220 224 212 210 219 218 217 234 248 238 220 228 206 190 142 96 80 80 90 20 354 281 188 163 192 213 208 215 223 232 250 283 262 193 219
163 188 213 225 225 212 216 261 271 240 241 227 221 216 225 231 238 230 239 229 169 141 122 147 188 201 212 218 224 240 225 219 222 212 209 218 225 235 252 258 256 220 238
172 196 209 208 217 221 221 220 260 311 320 280 254 237 225 228 230 224 229 195 153 140 150 194 210 217 221 222 223 220 225 227 216 208 216 228 234 239 245 247 247 246 251
185 199 196 213 229 232 229 223 218 226 259 285 287 266 242 232 231 220 203 136 134 162 190 207 218 224 225 224 224 224 225 220 212 217 222 228 231 233 240 242 239 245 252
189 201 211 224 239 243 237 230 226 230 237 251 273 288 265 250 250 227 157 165 190 207 213 221 225 225 226 227 228 226 221 219 222 220 227 230 227 230 243 245 245 258 257
202 210 219 231 255 260 245 238 234 231 228 234 242 247 239 178 209 217 196 200 208 218 220 223 227 229 227 227 228 226 224 224 224 225 230 231 229 227 236 242 241 244 249
207 222 231 252 258 260 256 244 233 222 220 232 242 240 208 201 211 215 214 213 218 225 226 226 229 233 233 230 227 227 227 232 231 230 230 231 230 234 237 236 241 242 247
199 223 228 240 256 264 262 245 232 226 226 237 252 249 217 205 213 218 221 225 227 230 229 223 228 233 234 233 231 229 230 235 236 232 233 234 233 236 237 235 240 247 251
195 215 237 254 257 258 264 259 253 248 244 237 237 231 220 220 224 226 231 234 235 238 235 229 235 244 248 247 242 233 229 232 234 230 226 231 230 232 232 235 237 241 244
202 217 231 245 250 250 254 265 267 263 259 246 240 235 230 229 232 235 236 239 239 240 238 234 237 242 246 252 254 248 245 243 238 232 224 226 228 232 233 236 239 238 241
211 222 230 239 241 246 256 266 271 274 272 260 245 247 244 239 239 244 243 244 242 242 244 244 249 250 251 251 254 252 248 245 244 239 232 225 224 228 231 235 238 242 243
213 221 229 233 239 242 248 258 265 270 272 271 256 250 249 248 248 250 247 247 251 254 258 257 254 255 258 260 256 253 252 249 244 239 233 226 221 228 231 237 238 238 241
Height
1516 1517 1518 1519 1520 1520 1521 1521 1522 1522 1522 1522 1522 1522 1522 1522 1522 1522 1522 1522 1522 1522 1522 1522 1522 1522 1522 1522 1523 1523 1523 1524 1524 1525 1525 1526 1526 1527 1527 1527 1528 1528 1528
1514 1515 1515 1516 1517 1518 1518 1519 1519 1520 1520 1520 1520 1520 1520 1521 1521 1520 1520 1520 1520 1520 1520 1520 1520 1520 1520 1520 1521 1521 1521 1522 1522 1522 1523 1524 1524 1525 1525 1526 1526 1526 1526
1512 1512 1513 1514 1514 1515 1516 1516 1517 1517 1518 1518 1518 1518 1518 1518 1518 1518 1518 1518 1518 1518 1518 1518 1518 1518 1518 1518 1519 1519 1519 1520 1520 1521 1521 1522 1522 1523 1523 1524 1524 1524 1524
1509 1510 1510 1511 1512 1512 1513 1513 1514 1514 1515 1515 1515 1516 1516 1516 1516 1516 1516 1516 1516 1516 1516 1516 1516 1516 1516 1516 1516 1517 1517 1517 1518 1518 1518 1519 1520 1520 1521 1521 1521 1522 1522
1507 1507 1507 1508 1509 1510 1510 1510 1511 1511 1512 1512 1513 1513 1513 1513 1513 1513 1513 1513 1513 1513 1513 1513 1513 1513 1513 1514 1514 1514 1514 1515 1515 1516 1516 1516 1517 1517 1518 1518 1518 1519 1519
1504 1504 1505 1506 1506 1507 1507 1507 1508 1508 1509 1509 1509 1510 1509 1510 1510 1510 1510 1510 1510 1510 1510 1510 1511 1511 1511 1511 1511 1512 1512 1512 1513 1513 1513 1513 1514 1514 1515 1515 1515 1516 1515
1501 1502 1502 1503 1503 1504 1504 1505 1505 1505 1506 1506 1506 1506 1506 1506 1506 1507 1507 1507 1507 1507 1508 1507 1508 1508 1508 1508 1508 1509 1509 1510 1510 1510 1510 1510 1511 1511 1512 1512 1512 1513 1512
1498 1499 1500 1500 1500 1501 1501 1502 1502 1502 1503 1503 1503 1503 1503 1503 1503 1503 1504 1504 1504 1504 1504 1504 1504 1504 1505 1505 1505 1506 1506 1506 1507 1507 1508 1508 1508 1509 1509 1510 1510 1510 1510
1495 1496 1496 1497 1497 1498 1498 1499 1499 1499 1499 1500 1500 1500 1500 1500 1500 1500 1501 1501 1501 1501 1501 1501 1501 1502 1502 1502 1503 1503 1503 1503 1504 1504 1505 1505 1505 1506 1506 1506 1506 1506 1506
1492 1492 1493 1494 1494 1495 1495 1495 1496 1496 1496 1496 1496 1496 1497 1497 1497 1497 1497 1497 1497 1497 1498 1498 1499 1499 1499 1500 1500 1500 1500 1500 1500 1500 1501 1502 1502 1502 1503 1503 1503 1503 1502
1489 1490 1490 1491 1491 1492 1492 1492 1492 1493 1493 1493 1493 1493 1493 1493 1493 1494 1494 1494 1494 1494 1494 1495 1496 1496 1496 1497 1497 1497 1497 1497 1497 1497 1497 1497 1498 1498 1498 1499 1499 1500 1499
1486 1487 1487 1487 1488 1488 1489 1489 1489 1489 1489 1489 1489 1489 1489 1490 1490 1490 1490 1490 1491 1491 1491 1492 1492 1493 1493 1494 1494 1494 1495 1494 1494 1494 1493 1493 1494 1494 1495 1495 1496 1496 1496
1483 1483 1483 1484 1484 1485 1485 1485 1485 1485 1485 1485 1485 1485 1485 1486 1486 1486 1487 1487 1487 1488 1488 1489 1489 1489 1490 1490 1491 1491 1491 1491 1490 1490 1490 1491 1491 1491 1492 1492 1492 1492 1492
1480 1480 1480 1481 1481 1481 1481 1481 1481 1481 1482 1482 1481 1481 1481 1482 1482 1482 1483 1483 1483 1484 1484 1485 1485 1486 1486 1487 1487 1487 1487 1487 1487 1487 1487 1488 1488 1488 1488 1488 1488 1488 1488
1477 1477 1477 1478 1478 1478 1478 1478 1478 1478 1478 1478 1478 1478 1478 1477 1478 1479 1479 1479 1479 1480 1481 1481 1481 1482 1482 1482 1483 1483 1484 1483 1483 1484 1484 1484 1484 1484 1484 1484 1484 1484 1484
1474 1474 1474 1474 1474 1474 1474 1474 1475 1475 1475 1475 1475 1475 1474 1475 1475 1475 1476 1476 1476 1477 1477 1476 1477 1477 1478 1478 1479 1479 1480 1480 1480 1480 1480 1480 1480 1480 1480 1480 1480 1480 1480
1471 1471 1471 1471 1471 1471 1471 1471 1470 1471 1471 1471 1471 1471 1471 1471 1471 1472 1472 1472 1473 1473 1473 1473 1473 1473 1474 1474 1475 1475 1475 1476 1476 1476 1476 1476 1476 1476 1476 1476 1476 1476 1476
1468 1468 1468 1468 1468 1468 1468 1467 1467 1467 1467 1466 1467 1467 1467 1467 1468 1468 1468 1469 1468 1468 1468 1469 1469 1469 1470 1470 1470 1471 1471 1472 1472 1472 1472 1472 1472 1472 1472 1472 1472 1472 1472
1465 1465 1465 1465 1465 1465 1464 1464 1463 1463 1463 1462 1463 1463 1464 1464 1464 1464 1464 1464 1464 1464 1464 1465 1465 1465 1466 1466 1466 1466 1467 1467 1467 1468 1468 1468 1468 1468 1468 1468 1468 1468 1468
1462 1462 1462 1462 1461 1461 1460 1460 1459 1459 1458 1458 1459 1459 1459 1460 1459 1459 1459 1459 1460 1460 1460 1460 1461 1461 1461 1462 1462 1462 1462 1462 1463 1463 1463 1463 1464 1464 1464 1464 1463 1463 1463
1459 1459 1459 1458 1457 1457 1456 1455 1455 1455 1455 1455 1455 1455 1455 1455 1455 1455 1455 1455 1455 1455 1455 1456 1456 1456 1457 1457 1457 1457 1457 1457 1457 1458 1458 1458 1459 1459 1459 1459 1459 1459 1459
1456 1456 1455 1454 1454 1453 1452 1452 1451 1451 1451 1451 1451 1451 1451 1451 1451 1451 1451 1451 1451 1451 1451 1451 1451 1451 1451 1452 1452 1452 1452 1452 1452 1453 1453 1453 1453 1454 1454 1454 1454 1454 1453
1453 1452 1452 1451 1450 1449 1448 1447 1447 1447 1447 1447 1446 1446 1446 1446 1446 1446 1446 1446 1446 1446 1446 1446 1446 1446 1446 1446 1446 1446 1446 1446 1447 1447 1447 1448 1448 1448 1448 1448 1448 1448 1448
1449 1448 1448 1447 1446 1445 1445 1444 1443 1443 1442 1442 1442 1442 1442 1442 1442 1442 1441 1441 1441 1441 1441 1441 1441 1440 1440 1440 1440 1440 1441 1441 1442 1442 1442 1442 1442 1442 1442 1442 1442 1442 1442
1445 1444 1444 1443 1442 1441 1441 1440 1439 1439 1438 1438 1438 1437 1437 1437 1437 1436 1436 1436 1436 1435 1435 1435 1435 1435 1434 1434 1434 1434 1435 1435 1436 1436 1436 1436 1436 1436 1436 1436 1436 1436 1436
1441 1440 1440 1439 1438 1438 1437 1436 1436 1435 1434 1434 1433 1433 1432 1432 1432 1431 1431 1431 1430 1430 1430 1429 1429 1429 1429 1428 1428 1429 1429 1429 1429 1430 1430 1430 1429 1430 1430 1430 1430 1430 1430